Location: Camp Roosevelt
(41.7914°N, 81.1673°W)
Time: 08:04:08
(UTC+00:00)

Cosmos 1812 Rocket - Pass Details

Date: 29 October 2020
Orbit: 605 x 633 km, 82.5° (Epoch: 28 November)

Event Time Altitude Azimuth Distance (km) Brightness Sun altitude
Rises 23:47:50 0° 177° (S) 2,889 7.0 -16.5°
Reaches altitude 10° 23:50:05 10° 173° (S) 1,983 6.1 -16.9°
Maximum altitude 23:54:24 58° 95° (E) 721 3.5 -17.7°
Drops below altitude 10° 23:58:42 10° 16° (NNE) 1,982 6.0 -18.5°
Sets 00:00:57 0° 12° (NNE) 2,887 6.8 -18.9°
